FW7611 Weather Reports


time (UTC)temp
C
wind
direction
speed
KPH
gust
KPH
rain 1hr
cm
rain 24hr
cm
rain mn
cm
humidity
%
barometer
mb
20260503054543 5 0 0.0 3.2 0.00 0.00 0.00 75 1017.7
20260503053036 5 0 0.0 3.2 0.00 0.00 0.00 74 1017.5
20260503051536 5 22 0.0 3.2 0.00 0.00 0.00 74 1017.5
20260503050042 5 0 0.0 0.0 0.00 0.00 0.00 73 1017.6
20260503044543 6 0 0.0 0.0 0.00 0.00 0.00 74 1017.4
20260503043043 6 0 0.0 0.0 0.00 0.00 0.00 67 1017.2
20260503041540 7 0 0.0 0.0 0.00 0.00 0.00 64 1017.0
20260503040038 7 0 0.0 0.0 0.00 0.00 0.00 65 1016.8
20260503034534 7 0 0.0 0.0 0.00 0.00 0.00 68 1016.8
20260503033048 7 0 0.0 0.0 0.00 0.00 0.00 68 1016.8
20260503031540 7 0 0.0 0.0 0.00 0.00 0.00 68 1016.7
20260503030039 7 0 0.0 0.0 0.00 0.00 0.00 66 1016.6
20260503024537 8 0 0.0 0.0 0.00 0.00 0.00 61 1016.5
20260503023033 8 0 0.0 0.0 0.00 0.00 0.00 59 1016.5
20260503021533 9 0 0.0 0.0 0.00 0.00 0.00 54 1016.3
20260503020040 10 0 0.0 3.2 0.00 0.00 0.00 53 1016.2
20260503014542 10 0 0.0 0.0 0.00 0.00 0.00 53 1016.2
20260503013047 10 0 0.0 3.2 0.00 0.00 0.00 52 1015.9
20260503011539 11 15 0.0 3.2 0.00 0.00 0.00 54 1015.8
20260503010047 11 0 0.0 1.6 0.00 0.00 0.00 53 1015.3
20260503004533 12 0 0.0 3.2 0.00 0.00 0.00 53 1015.0
20260503003041 12 0 0.0 0.0 0.00 0.00 0.00 60 1014.8
20260503001538 12 0 0.0 3.2 0.00 0.00 0.00 60 1014.7
20260503000039 12 0 0.0 3.2 0.00 0.00 0.00 63 1014.5
20260502234539 12 0 0.0 0.0 0.00 0.00 0.00 65 1014.3
20260502233033 12 0 0.0 0.0 0.00 0.00 0.00 62 1014.1
20260502231540 13 0 0.0 0.0 0.00 0.00 0.00 62 1013.7
20260502230040 13 0 0.0 3.2 0.00 0.00 0.00 57 1013.7
20260502224541 14 0 0.0 3.2 0.00 0.00 0.00 52 1013.5
20260502223038 14 0 0.0 3.2 0.00 0.00 0.00 50 1013.5
20260502221536 15 0 0.0 3.2 0.00 0.00 0.00 50 1013.2
20260502220035 14 165 0.0 4.8 0.00 0.00 0.00 49 1012.9
20260502214551 15 188 1.6 4.8 0.00 0.00 0.00 46 1012.7
20260502213041 15 219 1.6 11.3 0.00 0.00 0.00 46 1012.4
20260502211539 15 168 4.8 14.5 0.00 0.00 0.00 44 1012.3
20260502210047 15 186 4.8 12.9 0.00 0.00 0.00 45 1012.2
20260502204536 15 36 1.6 11.3 0.00 0.00 0.00 44 1012.2
20260502203055 15 246 1.6 14.5 0.00 0.00 0.00 45 1012.3
20260502201547 15 0 0.0 4.8 0.00 0.00 0.00 46 1012.8
20260502200042 14 52 0.0 4.8 0.00 0.00 0.00 46 1012.9
20260502194540 14 129 1.6 4.8 0.00 0.00 0.00 45 1013.3
20260502193050 14 0 0.0 4.8 0.00 0.00 0.00 46 1013.7
20260502191536 14 198 3.2 12.9 0.00 0.00 0.00 46 1013.8
20260502190044 13 71 0.0 9.7 0.00 0.00 0.00 46 1013.9
20260502184541 13 332 1.6 8.0 0.00 0.00 0.00 46 1014.0
20260502183041 13 162 1.6 3.2 0.00 0.00 0.00 48 1014.3
20260502181539 12 55 0.0 3.2 0.00 0.00 0.00 49 1014.4
20260502163038 11 34 1.6 8.0 0.00 0.00 0.00 51 1015.9
20260502161536 11 19 1.6 8.0 0.00 0.00 0.00 53 1016.0
20260502151541 11 37 0.0 3.2 0.00 0.00 0.00 58 1016.2
20260502123041 11 0 0.0 0.0 0.00 0.00 0.00 73 1014.9
20260502121537 11 0 0.0 0.0 0.00 0.00 0.00 74 1014.8
20260502114601 11 0 0.0 3.2 0.00 0.00 0.00 73 1014.9
20260502113043 11 0 0.0 0.0 0.00 0.00 0.00 74 1014.7
20260502111542 11 0 0.0 0.0 0.00 0.00 0.00 75 1014.6
20260502110040 10 0 0.0 0.0 0.00 0.00 0.00 76 1014.6
20260502104537 11 0 0.0 0.0 0.00 0.00 0.00 76 1014.6
20260502103044 10 0 0.0 0.0 0.00 0.00 0.00 78 1014.7
20260502101559 10 0 0.0 0.0 0.00 0.00 0.00 81 1014.6
20260502070046 10 0 0.0 0.0 0.00 0.00 0.00 87 1013.6
20260502064611 10 0 0.0 0.0 0.00 0.00 0.00 86 1013.7